Year,Month,Day,Hour,Minute,Value (Times are PST for temperature in C)
2018,08,08,00,00,26.00
2018,08,08,00,01,26.10
2018,08,08,00,02,26.10
2018,08,08,00,03,26.20
2018,08,08,00,04,26.20
2018,08,08,00,05,26.20
2018,08,08,00,06,26.30
2018,08,08,00,07,26.30
2018,08,08,00,08,26.30
2018,08,08,00,09,26.30
2018,08,08,00,10,26.40
2018,08,08,00,11,26.40
2018,08,08,00,12,26.30
2018,08,08,00,13,26.30
2018,08,08,00,14,26.30
2018,08,08,00,15,26.30
2018,08,08,00,16,26.30
2018,08,08,00,17,26.30
2018,08,08,00,18,26.30
2018,08,08,00,19,26.30
2018,08,08,00,20,26.30
2018,08,08,00,21,26.30
2018,08,08,00,22,26.20
2018,08,08,00,23,26.20
2018,08,08,00,24,26.10
2018,08,08,00,25,26.10
2018,08,08,00,26,26.10
2018,08,08,00,27,26.00
2018,08,08,00,28,26.00
2018,08,08,00,29,25.90
2018,08,08,00,30,25.90
2018,08,08,00,31,25.90
2018,08,08,00,32,25.90
2018,08,08,00,33,25.80
2018,08,08,00,34,25.80
2018,08,08,00,35,25.80
2018,08,08,00,36,25.70
2018,08,08,00,37,25.70
2018,08,08,00,38,25.70
2018,08,08,00,39,25.60
2018,08,08,00,40,25.60
2018,08,08,00,41,25.50
2018,08,08,00,42,25.50
2018,08,08,00,43,25.50
2018,08,08,00,44,25.40
2018,08,08,00,45,25.40
2018,08,08,00,46,25.30
2018,08,08,00,47,25.30
2018,08,08,00,48,25.30
2018,08,08,00,49,25.30
2018,08,08,00,50,25.20
2018,08,08,00,51,25.20
2018,08,08,00,52,25.20
2018,08,08,00,53,25.10
2018,08,08,00,54,25.10
2018,08,08,00,55,25.10
2018,08,08,00,56,25.10
2018,08,08,00,57,25.10
2018,08,08,00,58,25.10
2018,08,08,00,59,25.10
2018,08,08,01,00,25.10
2018,08,08,01,01,25.10
2018,08,08,01,02,25.10
2018,08,08,01,03,25.10
2018,08,08,01,04,25.10
2018,08,08,01,05,25.10
2018,08,08,01,06,25.10
2018,08,08,01,07,25.00
2018,08,08,01,08,25.00
2018,08,08,01,09,25.00
2018,08,08,01,10,25.00
2018,08,08,01,11,25.00
2018,08,08,01,12,25.00
2018,08,08,01,13,25.00
2018,08,08,01,14,25.00
2018,08,08,01,15,25.00
2018,08,08,01,16,25.00
2018,08,08,01,17,25.00
2018,08,08,01,18,25.00
2018,08,08,01,19,25.00
2018,08,08,01,20,25.00
2018,08,08,01,21,24.90
2018,08,08,01,22,24.90
2018,08,08,01,23,24.90
2018,08,08,01,24,24.90
2018,08,08,01,25,24.90
2018,08,08,01,26,24.90
2018,08,08,01,27,24.90
2018,08,08,01,28,24.90
2018,08,08,01,29,24.80
2018,08,08,01,30,24.80
2018,08,08,01,31,24.80
2018,08,08,01,32,24.80
2018,08,08,01,33,24.80
2018,08,08,01,34,24.80
2018,08,08,01,35,24.80
2018,08,08,01,36,24.80
2018,08,08,01,37,24.80
2018,08,08,01,38,24.80
2018,08,08,01,39,24.80
2018,08,08,01,40,24.80
2018,08,08,01,41,24.80
2018,08,08,01,42,24.80
2018,08,08,01,43,24.80
2018,08,08,01,44,24.80
2018,08,08,01,45,24.80
2018,08,08,01,46,24.80
2018,08,08,01,47,24.80
2018,08,08,01,48,24.80
2018,08,08,01,49,24.80
2018,08,08,01,50,24.80
2018,08,08,01,51,24.80
2018,08,08,01,52,24.80
2018,08,08,01,53,24.70
2018,08,08,01,54,24.70
2018,08,08,01,55,24.70
2018,08,08,01,56,24.70
2018,08,08,01,57,24.70
2018,08,08,01,58,24.70
2018,08,08,01,59,24.70
2018,08,08,02,00,24.70
2018,08,08,02,01,24.70
2018,08,08,02,02,24.70
2018,08,08,02,03,24.70
2018,08,08,02,04,24.70
2018,08,08,02,05,24.70
2018,08,08,02,06,24.70
2018,08,08,02,07,24.70
2018,08,08,02,08,24.70
2018,08,08,02,09,24.70
2018,08,08,02,10,24.70
2018,08,08,02,11,24.70
2018,08,08,02,12,24.70
2018,08,08,02,13,24.70
2018,08,08,02,14,24.70
2018,08,08,02,15,24.70
2018,08,08,02,16,24.70
2018,08,08,02,17,24.70
2018,08,08,02,18,24.70
2018,08,08,02,19,24.70
2018,08,08,02,20,24.70
2018,08,08,02,21,24.70
2018,08,08,02,22,24.60
2018,08,08,02,23,24.70
2018,08,08,02,24,24.70
2018,08,08,02,25,24.70
2018,08,08,02,26,24.70
2018,08,08,02,27,24.70
2018,08,08,02,28,24.60
2018,08,08,02,29,24.60
2018,08,08,02,30,24.60
2018,08,08,02,31,24.60
2018,08,08,02,32,24.50
2018,08,08,02,33,24.50
2018,08,08,02,34,24.40
2018,08,08,02,35,24.40
2018,08,08,02,36,24.40
2018,08,08,02,37,24.30
2018,08,08,02,38,24.30
2018,08,08,02,39,24.30
2018,08,08,02,40,24.30
2018,08,08,02,41,24.30
2018,08,08,02,42,24.30
2018,08,08,02,43,24.30
2018,08,08,02,44,24.30
2018,08,08,02,45,24.30
2018,08,08,02,46,24.30
2018,08,08,02,47,24.30
2018,08,08,02,48,24.30
2018,08,08,02,49,24.30
2018,08,08,02,50,24.30
2018,08,08,02,51,24.30
2018,08,08,02,52,24.30
2018,08,08,02,53,24.30
2018,08,08,02,54,24.30
2018,08,08,02,55,24.30
2018,08,08,02,56,24.30
2018,08,08,02,57,24.30
2018,08,08,02,58,24.30
2018,08,08,02,59,24.30
2018,08,08,03,00,24.30
2018,08,08,03,01,24.30
2018,08,08,03,02,24.30
2018,08,08,03,03,24.20
2018,08,08,03,04,24.20
2018,08,08,03,05,24.20
2018,08,08,03,06,24.20
2018,08,08,03,07,24.10
2018,08,08,03,08,24.10
2018,08,08,03,09,24.10
2018,08,08,03,10,24.00
2018,08,08,03,11,24.00
2018,08,08,03,12,24.00
2018,08,08,03,13,23.90
2018,08,08,03,14,23.90
2018,08,08,03,15,23.90
2018,08,08,03,16,23.90
2018,08,08,03,17,23.80
2018,08,08,03,18,23.80
2018,08,08,03,19,23.80
2018,08,08,03,20,23.80
2018,08,08,03,21,23.70
2018,08,08,03,22,23.70
2018,08,08,03,23,23.70
2018,08,08,03,24,23.60
2018,08,08,03,25,23.60
2018,08,08,03,26,23.50
2018,08,08,03,27,23.50
2018,08,08,03,28,23.40
2018,08,08,03,29,23.40
2018,08,08,03,30,23.40
2018,08,08,03,31,23.30
2018,08,08,03,32,23.30
2018,08,08,03,33,23.30
2018,08,08,03,34,23.30
2018,08,08,03,35,23.20
2018,08,08,03,36,23.20
2018,08,08,03,37,23.20
2018,08,08,03,38,23.10
2018,08,08,03,39,23.10
2018,08,08,03,40,23.10
2018,08,08,03,41,23.10
2018,08,08,03,42,23.10
2018,08,08,03,43,23.00
2018,08,08,03,44,23.00
2018,08,08,03,45,23.00
2018,08,08,03,46,22.90
2018,08,08,03,47,22.90
2018,08,08,03,48,22.90
2018,08,08,03,49,22.80
2018,08,08,03,50,22.80
2018,08,08,03,51,22.80
2018,08,08,03,52,22.80
2018,08,08,03,53,22.80
2018,08,08,03,54,22.70
2018,08,08,03,55,22.70
2018,08,08,03,56,22.70
2018,08,08,03,57,22.70
2018,08,08,03,58,22.70
2018,08,08,03,59,22.70
2018,08,08,04,00,22.70
2018,08,08,04,01,22.70
2018,08,08,04,02,22.70
2018,08,08,04,03,22.70
2018,08,08,04,04,22.70
2018,08,08,04,05,22.70
2018,08,08,04,06,22.60
2018,08,08,04,07,22.60
2018,08,08,04,08,22.60
2018,08,08,04,09,22.60
2018,08,08,04,10,22.60
2018,08,08,04,11,22.50
2018,08,08,04,12,22.50
2018,08,08,04,13,22.50
2018,08,08,04,14,22.50
2018,08,08,04,15,22.50
2018,08,08,04,16,22.40
2018,08,08,04,17,22.40
2018,08,08,04,18,22.40
2018,08,08,04,19,22.40
2018,08,08,04,20,22.30
2018,08,08,04,21,22.30
2018,08,08,04,22,22.30
2018,08,08,04,23,22.30
2018,08,08,04,24,22.30
2018,08,08,04,25,22.20
2018,08,08,04,26,22.20
2018,08,08,04,27,22.20
2018,08,08,04,28,22.20
2018,08,08,04,29,22.20
2018,08,08,04,30,22.10
2018,08,08,04,31,22.10
2018,08,08,04,32,22.10
2018,08,08,04,33,22.10
2018,08,08,04,34,22.10
2018,08,08,04,35,22.10
2018,08,08,04,36,22.00
2018,08,08,04,37,22.00
2018,08,08,04,38,22.00
2018,08,08,04,39,22.00
2018,08,08,04,40,21.90
2018,08,08,04,41,21.90
2018,08,08,04,42,21.90
2018,08,08,04,43,21.90
2018,08,08,04,44,21.90
2018,08,08,04,45,21.90
2018,08,08,04,46,21.80
2018,08,08,04,47,21.80
2018,08,08,04,48,21.80
2018,08,08,04,49,21.80
2018,08,08,04,50,21.80
2018,08,08,04,51,21.80
2018,08,08,04,52,21.80
2018,08,08,04,53,21.80
2018,08,08,04,54,21.80
2018,08,08,04,55,21.80
2018,08,08,04,56,21.80
2018,08,08,04,57,21.80
2018,08,08,04,58,21.80
2018,08,08,04,59,21.70
2018,08,08,05,00,21.70
2018,08,08,05,01,21.70
2018,08,08,05,02,21.70
2018,08,08,05,03,21.70
2018,08,08,05,04,21.70
2018,08,08,05,05,21.70
2018,08,08,05,06,21.70
2018,08,08,05,07,21.70
2018,08,08,05,08,21.70
2018,08,08,05,09,21.70
2018,08,08,05,10,21.70
2018,08,08,05,11,21.70
2018,08,08,05,12,21.70
2018,08,08,05,13,21.70
2018,08,08,05,14,21.70
2018,08,08,05,15,21.70
2018,08,08,05,16,21.70
2018,08,08,05,17,21.80
2018,08,08,05,18,21.80
2018,08,08,05,19,21.80
2018,08,08,05,20,21.80
2018,08,08,05,21,21.80
2018,08,08,05,22,21.70
2018,08,08,05,23,21.70
2018,08,08,05,24,21.70
2018,08,08,05,25,21.70
2018,08,08,05,26,21.70
2018,08,08,05,27,21.70
2018,08,08,05,28,21.60
2018,08,08,05,29,21.60
2018,08,08,05,30,21.60
2018,08,08,05,31,21.60
2018,08,08,05,32,21.60
2018,08,08,05,33,21.60
2018,08,08,05,34,21.60
2018,08,08,05,35,21.60
2018,08,08,05,36,21.60
2018,08,08,05,37,21.60
2018,08,08,05,38,21.60
2018,08,08,05,39,21.60
2018,08,08,05,40,21.60
2018,08,08,05,41,21.60
2018,08,08,05,42,21.60
2018,08,08,05,43,21.60
2018,08,08,05,44,21.60
2018,08,08,05,45,21.60
2018,08,08,05,46,21.50
2018,08,08,05,47,21.50
2018,08,08,05,48,21.50
2018,08,08,05,49,21.60
2018,08,08,05,50,21.60
2018,08,08,05,51,21.60
2018,08,08,05,52,21.60
2018,08,08,05,53,21.60
2018,08,08,05,54,21.60
2018,08,08,05,55,21.60
2018,08,08,05,56,21.60
2018,08,08,05,57,21.60
2018,08,08,05,58,21.60
2018,08,08,05,59,21.60
2018,08,08,06,00,21.60
2018,08,08,06,01,21.60
2018,08,08,06,02,21.60
2018,08,08,06,03,21.60
2018,08,08,06,04,21.60
2018,08,08,06,05,21.60
2018,08,08,06,06,21.60
2018,08,08,06,07,21.60
2018,08,08,06,08,21.60
2018,08,08,06,09,21.60
2018,08,08,06,10,21.60
2018,08,08,06,11,21.60
2018,08,08,06,12,21.60
2018,08,08,06,13,21.60
2018,08,08,06,14,21.60
2018,08,08,06,15,21.60
2018,08,08,06,16,21.60
2018,08,08,06,17,21.60
2018,08,08,06,18,21.60
2018,08,08,06,19,21.50
2018,08,08,06,20,21.50
2018,08,08,06,21,21.50
2018,08,08,06,22,21.50
2018,08,08,06,23,21.40
2018,08,08,06,24,21.40
2018,08,08,06,25,21.40
2018,08,08,06,26,21.40
2018,08,08,06,27,21.40
2018,08,08,06,28,21.40
2018,08,08,06,29,21.40
2018,08,08,06,30,21.40
2018,08,08,06,31,21.40
2018,08,08,06,32,21.40
2018,08,08,06,33,21.40
2018,08,08,06,34,21.40
2018,08,08,06,35,21.40
2018,08,08,06,36,21.40
2018,08,08,06,37,21.40
2018,08,08,06,38,21.40
2018,08,08,06,39,21.50
2018,08,08,06,40,21.50
2018,08,08,06,41,21.50
2018,08,08,06,42,21.50
2018,08,08,06,43,21.50
2018,08,08,06,44,21.60
2018,08,08,06,45,21.60
2018,08,08,06,46,21.60
2018,08,08,06,47,21.60
2018,08,08,06,48,21.60
2018,08,08,06,49,21.60
2018,08,08,06,50,21.70
2018,08,08,06,51,21.70
2018,08,08,06,52,21.70
2018,08,08,06,53,21.70
2018,08,08,06,54,21.80
2018,08,08,06,55,21.80
2018,08,08,06,56,21.80
2018,08,08,06,57,21.80
2018,08,08,06,58,21.90
2018,08,08,06,59,21.90
2018,08,08,07,00,21.90
2018,08,08,07,01,22.00
2018,08,08,07,02,22.00
2018,08,08,07,03,22.10
2018,08,08,07,04,22.10
2018,08,08,07,05,22.20
2018,08,08,07,06,22.20
2018,08,08,07,07,22.30
2018,08,08,07,08,22.30
2018,08,08,07,09,22.30
2018,08,08,07,10,22.40
2018,08,08,07,11,22.40
2018,08,08,07,12,22.40
2018,08,08,07,13,22.50
2018,08,08,07,14,22.50
2018,08,08,07,15,22.60
2018,08,08,07,16,22.60
2018,08,08,07,17,22.60
2018,08,08,07,18,22.60
2018,08,08,07,19,22.70
2018,08,08,07,20,22.70
2018,08,08,07,21,22.70
2018,08,08,07,22,22.80
2018,08,08,07,23,22.80
2018,08,08,07,24,22.80
2018,08,08,07,25,22.90
2018,08,08,07,26,22.90
2018,08,08,07,27,22.90
2018,08,08,07,28,23.00
2018,08,08,07,29,23.00
2018,08,08,07,30,23.10
2018,08,08,07,31,23.20
2018,08,08,07,32,23.20
2018,08,08,07,33,23.30
2018,08,08,07,34,23.30
2018,08,08,07,35,23.40
2018,08,08,07,36,23.40
2018,08,08,07,37,23.50
2018,08,08,07,38,23.60
2018,08,08,07,39,23.60
2018,08,08,07,40,23.70
2018,08,08,07,41,23.70
2018,08,08,07,42,23.70
2018,08,08,07,43,23.70
2018,08,08,07,44,23.80
2018,08,08,07,45,23.80
2018,08,08,07,46,23.80
2018,08,08,07,47,23.80
2018,08,08,07,48,23.70
2018,08,08,07,49,23.70
2018,08,08,07,50,23.70
2018,08,08,07,51,23.70
2018,08,08,07,52,23.70
2018,08,08,07,53,23.60
2018,08,08,07,54,23.60
2018,08,08,07,55,23.50
2018,08,08,07,56,23.50
2018,08,08,07,57,23.40
2018,08,08,07,58,23.40
2018,08,08,07,59,23.40
2018,08,08,08,00,23.30
2018,08,08,08,01,23.30
2018,08,08,08,02,23.20
2018,08,08,08,03,23.20
2018,08,08,08,04,23.10
2018,08,08,08,05,23.00
2018,08,08,08,06,23.00
2018,08,08,08,07,22.90
2018,08,08,08,08,22.90
2018,08,08,08,09,22.80
2018,08,08,08,10,22.80
2018,08,08,08,11,22.80
2018,08,08,08,12,22.80
2018,08,08,08,13,22.90
2018,08,08,08,14,23.00
2018,08,08,08,15,23.00
2018,08,08,08,16,23.10
2018,08,08,08,17,23.20
2018,08,08,08,18,23.20
2018,08,08,08,19,23.30
2018,08,08,08,20,23.30
2018,08,08,08,21,23.30
2018,08,08,08,22,23.40
2018,08,08,08,23,23.40
2018,08,08,08,24,23.40
2018,08,08,08,25,23.40
2018,08,08,08,26,23.50
2018,08,08,08,27,23.50
2018,08,08,08,28,23.60
2018,08,08,08,29,23.60
2018,08,08,08,30,23.60
2018,08,08,08,31,23.70
2018,08,08,08,32,23.70
2018,08,08,08,33,23.80
2018,08,08,08,34,23.80
2018,08,08,08,35,23.80
2018,08,08,08,36,23.80
2018,08,08,08,37,23.80
2018,08,08,08,38,23.80
2018,08,08,08,39,23.80
2018,08,08,08,40,23.80
2018,08,08,08,41,23.80
2018,08,08,08,42,23.80
2018,08,08,08,43,23.80
2018,08,08,08,44,23.80
2018,08,08,08,45,23.80
2018,08,08,08,46,23.80
2018,08,08,08,47,23.80
2018,08,08,08,48,23.80
2018,08,08,08,49,23.80
2018,08,08,08,50,23.80
2018,08,08,08,51,23.90
2018,08,08,08,52,23.90
2018,08,08,08,53,23.90
2018,08,08,08,54,23.90
2018,08,08,08,55,23.90
2018,08,08,08,56,23.90
2018,08,08,08,57,23.90
2018,08,08,08,58,23.90
2018,08,08,08,59,23.80
2018,08,08,09,00,23.80
2018,08,08,09,01,23.70
2018,08,08,09,02,23.60
2018,08,08,09,03,23.50
2018,08,08,09,04,23.40
2018,08,08,09,05,23.40
2018,08,08,09,06,23.30
2018,08,08,09,07,23.20
2018,08,08,09,08,23.20
2018,08,08,09,09,23.20
2018,08,08,09,10,23.20
2018,08,08,09,11,23.20
2018,08,08,09,12,23.10
2018,08,08,09,13,23.10
2018,08,08,09,14,23.10
2018,08,08,09,15,23.10
2018,08,08,09,16,23.10
2018,08,08,09,17,23.00
2018,08,08,09,18,23.00
2018,08,08,09,19,22.90
2018,08,08,09,20,22.80
2018,08,08,09,21,22.80
2018,08,08,09,22,22.80
2018,08,08,09,23,22.80
2018,08,08,09,24,22.80
2018,08,08,09,25,22.80
2018,08,08,09,26,22.90
2018,08,08,09,27,22.90
2018,08,08,09,28,22.90
2018,08,08,09,29,22.90
2018,08,08,09,30,22.90
2018,08,08,09,31,22.90
2018,08,08,09,32,23.00
2018,08,08,09,33,23.00
2018,08,08,09,34,23.10
2018,08,08,09,35,23.10
2018,08,08,09,36,23.10
2018,08,08,09,37,23.20
2018,08,08,09,38,23.20
2018,08,08,09,39,23.30
2018,08,08,09,40,23.30
2018,08,08,09,41,23.30
2018,08,08,09,42,23.40
2018,08,08,09,43,23.40
2018,08,08,09,44,23.50
2018,08,08,09,45,23.50
2018,08,08,09,46,23.60
2018,08,08,09,47,23.70
2018,08,08,09,48,23.70
2018,08,08,09,49,23.80
2018,08,08,09,50,23.80
2018,08,08,09,51,23.90
2018,08,08,09,52,23.90
2018,08,08,09,53,23.90
2018,08,08,09,54,23.90
2018,08,08,09,55,24.00
2018,08,08,09,56,24.00
2018,08,08,09,57,24.00
2018,08,08,09,58,24.00
2018,08,08,09,59,24.00
2018,08,08,10,00,24.10
2018,08,08,10,01,24.00
2018,08,08,10,02,24.00
2018,08,08,10,03,23.90
2018,08,08,10,04,23.80
2018,08,08,10,05,23.80
2018,08,08,10,06,23.70
2018,08,08,10,07,23.70
2018,08,08,10,08,23.80
2018,08,08,10,09,23.70
2018,08,08,10,10,23.70
2018,08,08,10,11,23.70
2018,08,08,10,12,23.70
2018,08,08,10,13,23.70
2018,08,08,10,14,23.80
2018,08,08,10,15,23.90
2018,08,08,10,16,23.90
2018,08,08,10,17,23.80
2018,08,08,10,18,23.80
2018,08,08,10,19,23.90
2018,08,08,10,20,23.80
2018,08,08,10,21,23.80
2018,08,08,10,22,23.80
2018,08,08,10,23,23.70
2018,08,08,10,24,23.50
2018,08,08,10,25,23.50
2018,08,08,10,26,23.40
2018,08,08,10,27,23.40
2018,08,08,10,28,23.40
2018,08,08,10,29,23.40
2018,08,08,10,30,23.40
2018,08,08,10,31,23.50
2018,08,08,10,32,23.50
2018,08,08,10,33,23.60
2018,08,08,10,34,23.70
2018,08,08,10,35,23.80
2018,08,08,10,36,23.80
2018,08,08,10,37,23.80
2018,08,08,10,38,23.90
2018,08,08,10,39,24.00
2018,08,08,10,40,24.10
2018,08,08,10,41,24.10
2018,08,08,10,42,24.20
2018,08,08,10,43,24.20
2018,08,08,10,44,24.30
2018,08,08,10,45,24.30
2018,08,08,10,46,24.40
2018,08,08,10,47,24.40
2018,08,08,10,48,24.50
2018,08,08,10,49,24.60
2018,08,08,10,50,24.60
2018,08,08,10,51,24.60
2018,08,08,10,52,24.70
2018,08,08,10,53,24.70
2018,08,08,10,54,24.60
2018,08,08,10,55,24.60
2018,08,08,10,56,24.50
2018,08,08,10,57,24.50
2018,08,08,10,58,24.50
2018,08,08,10,59,24.50
2018,08,08,11,00,24.60
2018,08,08,11,01,24.70
2018,08,08,11,02,24.70
2018,08,08,11,03,24.80
2018,08,08,11,04,24.80
2018,08,08,11,05,24.80
2018,08,08,11,06,24.80
2018,08,08,11,07,24.80
2018,08,08,11,08,24.70
2018,08,08,11,09,24.80
2018,08,08,11,10,24.80
2018,08,08,11,11,24.90
2018,08,08,11,12,24.90
2018,08,08,11,13,25.00
2018,08,08,11,14,25.00
2018,08,08,11,15,25.10
2018,08,08,11,16,25.30
2018,08,08,11,17,25.30
2018,08,08,11,18,25.30
2018,08,08,11,19,25.30
2018,08,08,11,20,25.40
2018,08,08,11,21,25.40
2018,08,08,11,22,25.50
2018,08,08,11,23,25.60
2018,08,08,11,24,25.60
2018,08,08,11,25,25.70
2018,08,08,11,26,25.80
2018,08,08,11,27,25.90
2018,08,08,11,28,25.90
2018,08,08,11,29,25.90
2018,08,08,11,30,25.80
2018,08,08,11,31,25.90
2018,08,08,11,32,25.80
2018,08,08,11,33,25.60
2018,08,08,11,34,25.50
2018,08,08,11,35,25.40
2018,08,08,11,36,25.30
2018,08,08,11,37,25.30
2018,08,08,11,38,25.30
2018,08,08,11,39,25.30
2018,08,08,11,40,25.30
2018,08,08,11,41,25.30
2018,08,08,11,42,25.30
2018,08,08,11,43,25.40
2018,08,08,11,44,25.50
2018,08,08,11,45,25.60
2018,08,08,11,46,25.60
2018,08,08,11,47,25.70
2018,08,08,11,48,25.70
2018,08,08,11,49,25.70
2018,08,08,11,50,25.70
2018,08,08,11,51,25.70
2018,08,08,11,52,25.70
2018,08,08,11,53,25.70
2018,08,08,11,54,25.70
2018,08,08,11,55,25.70
2018,08,08,11,56,25.60
2018,08,08,11,57,25.60
2018,08,08,11,58,25.60
2018,08,08,11,59,25.60
2018,08,08,12,00,25.60
2018,08,08,12,01,25.60
2018,08,08,12,02,25.70
2018,08,08,12,03,25.80
2018,08,08,12,04,25.90
2018,08,08,12,05,25.90
2018,08,08,12,06,25.80
2018,08,08,12,07,25.80
2018,08,08,12,08,25.80
2018,08,08,12,09,25.80
2018,08,08,12,10,25.90
2018,08,08,12,11,25.90
2018,08,08,12,12,26.10
2018,08,08,12,13,26.20
2018,08,08,12,14,26.10
2018,08,08,12,15,26.00
2018,08,08,12,16,26.00
2018,08,08,12,17,26.00
2018,08,08,12,18,26.10
2018,08,08,12,19,26.10
2018,08,08,12,20,26.20
2018,08,08,12,21,26.30
2018,08,08,12,22,26.30
2018,08,08,12,23,26.30
2018,08,08,12,24,26.30
2018,08,08,12,25,26.20
2018,08,08,12,26,26.20
2018,08,08,12,27,26.10
2018,08,08,12,28,26.00
2018,08,08,12,29,25.90
2018,08,08,12,30,25.90
2018,08,08,12,31,25.80
2018,08,08,12,32,25.90
2018,08,08,12,33,25.90
2018,08,08,12,34,26.00
2018,08,08,12,35,26.00
2018,08,08,12,36,26.10
2018,08,08,12,37,26.10
2018,08,08,12,38,26.10
2018,08,08,12,39,26.20
2018,08,08,12,40,26.20
2018,08,08,12,41,26.20
2018,08,08,12,42,26.30
2018,08,08,12,43,26.40
2018,08,08,12,44,26.40
2018,08,08,12,45,26.40
2018,08,08,12,46,26.40
2018,08,08,12,47,26.40
2018,08,08,12,48,26.50
2018,08,08,12,49,26.50
2018,08,08,12,50,26.60
2018,08,08,12,51,26.60
2018,08,08,12,52,26.60
2018,08,08,12,53,26.60
2018,08,08,12,54,26.70
2018,08,08,12,55,26.70
2018,08,08,12,56,26.70
2018,08,08,12,57,26.70
2018,08,08,12,58,26.70
2018,08,08,12,59,26.70
2018,08,08,13,00,26.70
2018,08,08,13,01,26.80
2018,08,08,13,02,26.80
2018,08,08,13,03,26.80
2018,08,08,13,04,26.90
2018,08,08,13,05,27.00
2018,08,08,13,06,27.20
2018,08,08,13,07,27.30
2018,08,08,13,08,27.40
2018,08,08,13,09,27.50
2018,08,08,13,10,27.50
2018,08,08,13,11,27.50
2018,08,08,13,12,27.50
2018,08,08,13,13,27.50
2018,08,08,13,14,27.50
2018,08,08,13,15,27.50
2018,08,08,13,16,27.50
2018,08,08,13,17,27.50
2018,08,08,13,18,27.50
2018,08,08,13,19,27.40
2018,08,08,13,20,27.40
2018,08,08,13,21,27.40
2018,08,08,13,22,27.30
2018,08,08,13,23,27.30
2018,08,08,13,24,27.40
2018,08,08,13,25,27.40
2018,08,08,13,26,27.40
2018,08,08,13,27,27.40
2018,08,08,13,28,27.40
2018,08,08,13,29,27.50
2018,08,08,13,30,27.50
2018,08,08,13,31,27.60
2018,08,08,13,32,27.70
2018,08,08,13,33,27.70
2018,08,08,13,34,27.70
2018,08,08,13,35,27.60
2018,08,08,13,36,27.50
2018,08,08,13,37,27.40
2018,08,08,13,38,27.50
2018,08,08,13,39,27.50
2018,08,08,13,40,27.60
2018,08,08,13,41,27.60
2018,08,08,13,42,27.60
2018,08,08,13,43,27.70
2018,08,08,13,44,27.60
2018,08,08,13,45,27.60
2018,08,08,13,46,27.50
2018,08,08,13,47,27.40
2018,08,08,13,48,27.40
2018,08,08,13,49,27.40
2018,08,08,13,50,27.40
2018,08,08,13,51,27.40
2018,08,08,13,52,27.40
2018,08,08,13,53,27.30
2018,08,08,13,54,27.20
2018,08,08,13,55,27.30
2018,08,08,13,56,27.30
2018,08,08,13,57,27.30
2018,08,08,13,58,27.30
2018,08,08,13,59,27.30
2018,08,08,14,00,27.40
2018,08,08,14,01,27.50
2018,08,08,14,02,27.50
2018,08,08,14,03,27.50
2018,08,08,14,04,27.50
2018,08,08,14,05,27.50
2018,08,08,14,06,27.50
2018,08,08,14,07,27.60
2018,08,08,14,08,27.50
2018,08,08,14,09,27.50
2018,08,08,14,10,27.50
2018,08,08,14,11,27.50
2018,08,08,14,12,27.40
2018,08,08,14,13,27.30
2018,08,08,14,14,27.30
2018,08,08,14,15,27.30
2018,08,08,14,16,27.30
2018,08,08,14,17,27.40
2018,08,08,14,18,27.40
2018,08,08,14,19,27.40
2018,08,08,14,20,27.40
2018,08,08,14,21,27.50
2018,08,08,14,22,27.50
2018,08,08,14,23,27.60
2018,08,08,14,24,27.80
2018,08,08,14,25,27.80
2018,08,08,14,26,27.90
2018,08,08,14,27,27.90
2018,08,08,14,28,27.90
2018,08,08,14,29,27.90
2018,08,08,14,30,27.90
2018,08,08,14,31,27.90
2018,08,08,14,32,28.00
2018,08,08,14,33,28.10
2018,08,08,14,34,28.30
2018,08,08,14,35,28.40
2018,08,08,14,36,28.40
2018,08,08,14,37,28.50
2018,08,08,14,38,28.50
2018,08,08,14,39,28.60
2018,08,08,14,40,28.70
2018,08,08,14,41,28.80
2018,08,08,14,42,28.80
2018,08,08,14,43,28.90
2018,08,08,14,44,28.90
2018,08,08,14,45,28.90
2018,08,08,14,46,28.90
2018,08,08,14,47,29.00
2018,08,08,14,48,29.00
2018,08,08,14,49,29.10
2018,08,08,14,50,29.10
2018,08,08,14,51,29.10
2018,08,08,14,52,29.00
2018,08,08,14,53,28.90
2018,08,08,14,54,28.90
2018,08,08,14,55,28.70
2018,08,08,14,56,28.60
2018,08,08,14,57,28.50
2018,08,08,14,58,28.40
2018,08,08,14,59,28.30
2018,08,08,15,00,28.30
2018,08,08,15,01,28.40
2018,08,08,15,02,28.40
2018,08,08,15,03,28.50
2018,08,08,15,04,28.60
2018,08,08,15,05,28.60
2018,08,08,15,06,28.50
2018,08,08,15,07,28.40
2018,08,08,15,08,28.40
2018,08,08,15,09,28.30
2018,08,08,15,10,28.30
2018,08,08,15,11,28.30
2018,08,08,15,12,28.40
2018,08,08,15,13,28.40
2018,08,08,15,14,28.50
2018,08,08,15,15,28.50
2018,08,08,15,16,28.50
2018,08,08,15,17,28.40
2018,08,08,15,18,28.40
2018,08,08,15,19,28.40
2018,08,08,15,20,28.30
2018,08,08,15,21,28.20
2018,08,08,15,22,28.20
2018,08,08,15,23,28.20
2018,08,08,15,24,28.20
2018,08,08,15,25,28.20
2018,08,08,15,26,28.20
2018,08,08,15,27,28.30
2018,08,08,15,28,28.40
2018,08,08,15,29,28.50
2018,08,08,15,30,28.60
2018,08,08,15,31,28.70
2018,08,08,15,32,28.80
2018,08,08,15,33,28.80
2018,08,08,15,34,28.80
2018,08,08,15,35,28.70
2018,08,08,15,36,28.70
2018,08,08,15,37,28.70
2018,08,08,15,38,28.70
2018,08,08,15,39,28.70
2018,08,08,15,40,28.60
2018,08,08,15,41,28.60
2018,08,08,15,42,28.70
2018,08,08,15,43,28.70
2018,08,08,15,44,28.70
2018,08,08,15,45,28.60
2018,08,08,15,46,28.60
2018,08,08,15,47,28.60
2018,08,08,15,48,28.60
2018,08,08,15,49,28.60
2018,08,08,15,50,28.70
2018,08,08,15,51,28.70
2018,08,08,15,52,28.80
2018,08,08,15,53,28.80
2018,08,08,15,54,28.80
2018,08,08,15,55,28.80
2018,08,08,15,56,28.90
2018,08,08,15,57,28.90
2018,08,08,15,58,29.00
2018,08,08,15,59,29.00
2018,08,08,16,00,29.10
2018,08,08,16,01,29.10
2018,08,08,16,02,29.20
2018,08,08,16,03,29.20
2018,08,08,16,04,29.20
2018,08,08,16,05,29.20
2018,08,08,16,06,29.20
2018,08,08,16,07,29.30
2018,08,08,16,08,29.30
2018,08,08,16,09,29.30
2018,08,08,16,10,29.30
2018,08,08,16,11,29.30
2018,08,08,16,12,29.30
2018,08,08,16,13,29.30
2018,08,08,16,14,29.30
2018,08,08,16,15,29.40
2018,08,08,16,16,29.40
2018,08,08,16,17,29.40
2018,08,08,16,18,29.40
2018,08,08,16,19,29.40
2018,08,08,16,20,29.50
2018,08,08,16,21,29.50
2018,08,08,16,22,29.40
2018,08,08,16,23,29.40
2018,08,08,16,24,29.40
2018,08,08,16,25,29.50
2018,08,08,16,26,29.50
2018,08,08,16,27,29.60
2018,08,08,16,28,29.60
2018,08,08,16,29,29.70
2018,08,08,16,30,29.80
2018,08,08,16,31,29.80
2018,08,08,16,32,29.80
2018,08,08,16,33,29.90
2018,08,08,16,34,30.00
2018,08,08,16,35,30.10
2018,08,08,16,36,30.10
2018,08,08,16,37,30.10
2018,08,08,16,38,30.10
2018,08,08,16,39,30.20
2018,08,08,16,40,30.10
2018,08,08,16,41,30.10
2018,08,08,16,42,30.10
2018,08,08,16,43,30.10
2018,08,08,16,44,30.20
2018,08,08,16,45,30.20
2018,08,08,16,46,30.20
2018,08,08,16,47,30.10
2018,08,08,16,48,30.00
2018,08,08,16,49,29.90
2018,08,08,16,50,29.90
2018,08,08,16,51,29.90
2018,08,08,16,52,29.90
2018,08,08,16,53,29.90
2018,08,08,16,54,29.90
2018,08,08,16,55,29.90
2018,08,08,16,56,29.90
2018,08,08,16,57,29.90
2018,08,08,16,58,29.90
2018,08,08,16,59,29.90
2018,08,08,17,00,30.00
2018,08,08,17,01,30.00
2018,08,08,17,02,30.10
2018,08,08,17,03,30.20
2018,08,08,17,04,30.20
2018,08,08,17,05,30.30
2018,08,08,17,06,30.30
2018,08,08,17,07,30.40
2018,08,08,17,08,30.40
2018,08,08,17,09,30.50
2018,08,08,17,10,30.50
2018,08,08,17,11,30.60
2018,08,08,17,12,30.60
2018,08,08,17,13,30.60
2018,08,08,17,14,30.60
2018,08,08,17,15,30.60
2018,08,08,17,16,30.70
2018,08,08,17,17,30.80
2018,08,08,17,18,30.80
2018,08,08,17,19,30.80